Regional Weather Roundup
Issued by NWS Albany, NY

Home | Current Version | Previous Version | Text Only | Print | Product List | Glossary On
Versions: 1 2 3 4 5 6 7 8 9 10 11 12 13 14 15 16 17 18 19 20 21 22 23 24 25 26 27 28 29 30 31 32 33 34 35 36 37 38 39 40 41 42 43 44 45 46 47 48 49
000
ASUS41 KALY 040010
RWRALY

NEW YORK STATE HOURLY WEATHER ROUNDUP
NATIONAL WEATHER SERVICE ALBANY NY
700 PM EST TUE MAR 03 2015

NOTE: "FAIR" INDICATES FEW OR NO CLOUDS BELOW 12,000 FEET WITH NO
SIGNIFICANT WEATHER AND/OR NO OBSTRUCTIONS TO VISIBILITY.

NYZ032-033-038>043-046>054-057>066-NYZ062>081-040100-
EAST


CITY           SKY/WX    TMP DP  RH WIND       PRES   REMARKS
ALBANY         LGT SNOW  24  18  77 S21G29    29.95F WCI   9
GLENS FALLS    LGT SNOW  23  19  85 S12       29.93F FOG     WCI  12
POUGHKEEPSIE   MIX PCPN  25  21  85 SE8       30.04F FOG     WCI  16
MONTGOMERY     MIX PCPN  27  23  85 S8        30.00F FOG     WCI  19
WHITE PLAINS   FRZ RAIN  25  23  92 SE6       30.06F VSB 1/2 WCI  18
ISLIP          LGT SNOW  30  26  85 S6        30.11F VSB 3/4 WCI  24
NEW YORK CITY  LGTSLEET  32  29  88 S10       30.09F VSB 3/4 WCI  24
CENTRAL PARK   MIX PCPN  32  27  81 S9        30.10F WCI  24
$$

NYZ005>009-017-018-044>046-055-056-040100-
CENTRAL


CITY           SKY/WX    TMP DP  RH WIND       PRES   REMARKS
FULTON         MIX PCPN  26  22  84 SE10G20   29.69F WCI  16
SYRACUSE       SLEET     24  21  88 SE15G23   29.73F FOG     WCI  11
ROME           LGT SNOW  23  21  92 E16G23    29.80F FOG     WCI  10
ELMIRA         MIX PCPN  25  20  81 SW18      29.75F WCI  11
BINGHAMTON     LGT SNOW  20  17  88 S18G28    29.76F FOG     WCI   5
MONTICELLO     CLOUDY    19  19 100 SE8       29.94F WCI   9
$$

NYZ026>034-041>043-040100-
NORTH


CITY           SKY/WX    TMP DP  RH WIND       PRES   REMARKS
WATERTOWN      LGT SNOW  29  22  75 S14G23    29.65F WCI  18
FORT DRUM      NOT AVBL
MASSENA        LGT SNOW  20  20 100 NE5       29.73F FOG     WCI  13
SARANAC LAKE   LGT SNOW  19  15  84 S5        29.62F FOG     WCI  12
PLATTSBURGH    LGT SNOW  22  16  78 S17G24    29.82F WCI   8
$$

NYZ001>004-010>016-019>021-040100-
WEST


CITY           SKY/WX    TMP DP  RH WIND       PRES   REMARKS
NIAGARA FALLS  DRIZZLE   33  31  92 SW18G25   29.54F FOG     WCI  22
BUFFALO        LGT RAIN  36  33  89 S18G25    29.55F FOG     WCI  26
DUNKIRK        LGT SNOW  37  33  85 S21G35    29.60R FOG     WCI  26
JAMESTOWN      CLOUDY    34  32  93 S10       29.62R WCI  26
WELLSVILLE     MIX PCPN  28  23  81 S21G35    29.60F WCI  15
ROCHESTER      CLOUDY    30  24  78 S14       29.61F WCI  19
PENN YAN       CLOUDY    26  19  74 S18G29    29.66F WCI  13
$$

             KEY
       WCI = WIND CHILL INDEX
       VSB = VISIBILITY
       HX  = HEAT INDEX
$$


USA.gov is the U.S. government's official web portal to all federal, state and local government web resources and services.